Location: Newark
(45.4422°N, 16.2769°E)
Time: 23:59:53
(UTC+00:00)

Courier 1B - Pass Details

Date: 14 December 2019
Orbit: 962 x 1209 km, 28.3° (Epoch: 21 January)

Event Time Altitude Azimuth Distance (km) Brightness Sun altitude
Rises 20:10:14 0° 238° (WSW) 3,860 10.9 -50.9°
Enters shadow 20:11:12 - 234° (SW) 3,585 10.7 -51.1°
Reaches altitude 10° 20:13:41 10° 222° (SW) 2,951 - -51.5°
Maximum altitude 20:18:44 20° 178° (S) 2,338 - -52.3°
Drops below altitude 10° 20:23:58 10° 134° (SE) 3,070 - -53.1°
Sets 20:27:40 0° 119° (ESE) 4,065 - -53.7°
